Location: Maccacari
(45.1333°N, 11.1333°E)
Time: 01:09:10
(UTC+00:00)

Tiros 1 despin weight - Pass Details

Date: 22 January 2021
Orbit: 593 x 642 km, 48.2° (Epoch: 07 March)

Event Time Altitude Azimuth Distance (km) Brightness Sun altitude
Rises 18:04:44 0° 286° (WNW) 2,856 ? -20.2°
Reaches altitude 10° 18:07:03 10° 289° (WNW) 1,944 ? -20.6°
Maximum altitude 18:11:29 69° 12° (NNE) 642 ? -21.4°
Enters shadow 18:12:00 62° 56° (NE) 674 ? -21.5°
Drops below altitude 10° 18:15:53 10° 97° (E) 1,924 - -22.1°
Sets 18:18:11 0° 100° (E) 2,822 - -22.5°
